Location: Banska Bystrica
(0.0000°N, 19.1500°E)
Time: 10:13:59
(UTC+01:00)

GEOS 3 Rocket - Pass Details

Date: 19 February 2019
Orbit: 791 x 829 km, 115.0° (Epoch: 25 March)

Event Time Altitude Azimuth Distance (km) Brightness Sun altitude
Rises 19:34:28 0° 154° (SSE) 3,365 6.7 -23.8°
Reaches altitude 10° 19:36:46 10° 156° (SSE) 2,430 6.0 -24.4°
Maximum altitude 19:42:04 78° 241° (WSW) 846 3.7 -25.7°
Drops below altitude 10° 19:47:19 10° 328° (NNW) 2,413 6.3 -27.0°
Sets 19:49:37 0° 329° (NNW) 3,339 7.0 -27.5°
